1306713625361,49.8157
1306713685361,49.8335
1306713745361,49.7385
1306713805361,49.9041
1306713865361,49.6572
1306713925361,49.8402
1306713985361,49.8506
1306714045361,49.7924
1306714105361,49.7271
1306714165361,49.7308
1306714225361,49.8294
1306714285361,49.8105
1306714345361,49.8746
1306714405361,49.9002
1306714465361,50.0019
1306714525361,49.6345
1306714585361,49.7842
1306714645361,49.8594
1306714705361,49.9632
1306714765361,49.7413
1306714825361,49.8807
1306714885361,49.7785
1306714945361,50.0262
1306715005361,49.8577
1306715065361,49.9304
1306715125361,49.9143
1306715185361,49.8312
1306715245361,50.0478
1306715305361,49.9624
1306715365361,49.9319
1306715425361,49.9962
1306715485361,50.0580
1306715545361,50.0785
1306715605361,49.9297
1306715665361,49.9923
1306715725361,50.1025
1306715785361,49.9891
1306715845361,50.0300
1306715905361,50.1878
1306715965361,50.0680
1306716025361,49.9823
1306716085361,50.0076
1306716145361,50.1407
1306716205361,50.0194
1306716265361,50.0399
1306716325361,50.0936
1306716385361,50.1406
1306716445361,50.0370
1306716505361,49.9974
1306716565361,50.1642
1306716625361,49.9579
1306716685361,50.1569
1306716745361,50.0459
1306716805361,49.9551
1306716865361,50.1783
1306716925361,50.0514
1306716985361,50.1289
1306717045361,50.0498
1306717105361,50.2213
1306717165361,49.9957
1306717225371,50.1528
1306717285371,50.3107
1306717345371,50.3199
1306717405371,50.2885
1306717465371,50.1806
1306717525371,50.2767
1306717585371,50.2895
1306717645371,50.2432
1306717705371,50.5241
1306717765371,50.3447
1306717825371,50.2791
1306717885371,50.1795
1306718425371,50.4776
1306718485371,50.4064
1306718545371,50.6240
1306718605371,50.4665
1306718665371,50.3519
1306718725371,50.4503
1306718785371,50.5626
1306718845371,50.6716
1306718905371,50.3266
1306718965371,50.4072
1306719025371,50.2865
1306719085371,50.3507
1306719145371,50.3722
1306719205371,50.3894
1306719265371,50.3944
1306719325371,50.5003
1306719385371,50.5772
1306719445371,50.5269
1306719505371,50.4953
1306719565371,50.5384
1306719625371,50.6689
1306719685371,50.5093
1306719745371,50.3385
1306719805371,50.4415
1306719865371,50.3105
1306719925371,50.5464
1306719985371,50.4558
1306720045371,50.4102
1306720105371,50.5295
1306720165371,50.5632
1306720225371,50.4501
1306720285371,50.5704
1306720345371,50.4982
1306720405371,50.3663
1306720465371,50.4294
1306720525371,50.4279
1306720585371,50.4565
1306720645371,50.3551
1306720705371,50.5108
1306720765371,50.6041
1306720825382,50.4647
1306720885382,50.4316
1306720945382,50.5069
1306721005382,50.4772
1306721065382,50.5085
1306721125382,50.5321
1306721185382,50.4758
1306721245382,50.5234
1306721305382,50.4013
1306721365382,50.5978
1306721425382,50.5112
1306721485382,50.5168
1306721545382,50.2967
1306721605382,50.5270
1306721665382,50.3666
1306721725382,50.4276
1306721785382,50.4014
1306721845382,50.4847
1306721905382,50.3946
1306721965382,50.4563
1306722025382,50.4771
1306722085382,50.4999
1306722145382,50.5778
1306722205382,50.6713
1306722265382,50.4219
1306722325382,50.5273
1306722385382,50.4966
1306722445382,50.4391
1306722505382,50.3091
1306722565382,50.3623
1306722625382,50.3474
1306722685382,50.3476
1306722745382,50.3584
1306722805382,50.2969
1306722865382,50.3639
1306722925382,50.3715
1306722985382,50.4280
1306723045382,50.3547
1306723105382,50.4876
1306723165382,50.5046
1306723225382,50.3349
1306723285382,50.4839
1306723345382,50.2411
1306723405382,50.4153
1306723465382,50.1870
1306723525382,50.1770
1306723585382,50.1760
1306723645382,50.2486
1306723705382,50.1817
1306723765382,50.2487
1306723825382,50.3133
1306723885382,50.3912
1306723945382,50.3311
1306724005382,50.4357
1306724065382,50.2519
1306724125382,50.3123
1306724185382,50.2481
1306724245382,50.4849
1306724305382,50.1934
1306724365382,50.1556
1306724425392,50.0634
1306724485392,50.2115
1306724545392,50.1203
1306724605392,50.2251
1306724665392,50.0777
1306724725392,50.0662
1306724785392,50.0936
1306724845392,50.2270
1306724905392,50.2016
1306724965392,50.1337
1306725025392,50.2131
1306725085392,50.0404
1306725145392,50.0757
1306725205392,50.0227
1306725265392,50.1809
1306725325392,50.0946
1306725385392,50.1213
1306725445392,50.0836
1306725505392,50.1604
1306725565392,50.1073
1306725625392,50.0886
1306725685392,50.1089
1306725745392,49.9854
1306725805392,50.1248
1306725865392,50.2329
1306725925392,50.1569
1306725985392,50.0071
1306726045392,49.9666
1306726105392,50.0994
1306726165392,50.1188
1306726225392,50.1442
1306726285392,50.0824
1306726345392,49.9341
1306726405392,50.0285
1306726465392,50.0437
1306726525392,50.1192
1306726585392,49.9762
1306726645392,50.0398
1306726705392,50.1135
1306726765392,50.1831
1306726825392,50.0751
1306726885392,50.0011
1306726945392,50.1243
1306727005392,50.1741
1306727065392,50.0070
1306727125392,50.1552
1306727185392,50.2154
1306727245392,50.1903
1306727305392,49.9274
1306727365392,50.0089
1306727425392,50.0823
1306727485392,50.0630
1306727545392,50.0893
1306727605392,50.1190
1306727665392,50.1960
1306727725392,50.1085
1306727785392,50.0704
1306727845392,50.0049
1306727905392,50.0519
1306727965392,49.9965
1306728025402,50.0184
1306728085402,49.9274
1306728145402,50.0441
1306728205402,49.9855
1306728265402,49.9883
1306728325402,50.0302
1306728385402,49.9883
1306728445402,49.9834
1306728505402,50.0690
1306728565402,50.0074
1306728625402,49.9229
1306728685402,50.0437
1306728745402,50.1584
1306728805402,49.9939
1306728865402,50.1006
1306728925402,50.0498
1306728985402,50.1210
1306729045402,50.0811
1306729105402,50.0813
1306729165402,49.9508
1306729225402,49.9659
1306729285402,49.9874
1306729345402,50.0291
1306729405402,50.1171
1306729465402,50.0377
1306729525402,50.0871
1306729585402,49.9910
1306729645402,49.9127
1306729705402,50.1319
1306729765402,49.9558
1306729825402,49.9786
1306729885402,49.9357
1306729945402,50.1193
1306730005402,50.0206
1306730065402,50.1515
1306730125402,49.8969
1306730185402,49.9279
1306730245402,50.0591
1306730305402,50.0041
1306730365402,50.0832
1306730425402,50.0761
1306730485402,49.9964
1306730545402,50.1562
1306730605402,50.2022
1306730665402,50.1516
1306730725402,50.0864
1306730785402,50.0829
1306730845402,50.1763
1306730905402,50.1788
1306730965402,50.2271
1306731025402,50.1643
1306731085402,50.1911
1306731145402,50.0835
1306731205402,50.0620
1306731265402,50.1729
1306731325402,50.0532
1306731385402,50.2109
1306731445402,50.1489
1306731505402,50.2727
1306731565402,50.3120
1306731625411,50.1187
1306731685411,50.0875
1306731745411,50.1900
1306731805411,50.2139
1306731865411,50.3192
1306731925411,50.2691
1306731985411,50.2972
1306732045411,50.1813
1306732105411,50.3309
1306732165411,50.2310
1306732225411,50.2009
1306732285411,50.1901
1306732345411,50.1819
1306732405411,50.2593
1306732465411,50.2164
1306732525411,50.2299
1306732585411,50.2252
1306732645411,50.2373
1306732705411,50.2258
1306732765411,50.2207
1306732825411,50.2905
1306732885411,50.1964
1306732945411,50.2470
1306733005411,50.2294
1306733065411,50.2131
1306733125411,50.2734
1306733185411,50.2916
1306733245411,50.1836
1306733305411,50.2475
1306733365411,50.2975
1306733425411,50.2861
1306733485411,50.2174
1306733545411,50.2383
1306733605411,50.3459
1306733665411,50.4056
1306733725411,50.2792
1306733785411,50.4257
1306733845411,50.3743
1306733905411,50.2984
1306733965411,50.4275
1306734025411,50.3012
1306734085411,50.2434
1306734145411,50.3583
1306734205411,50.3087
1306734265411,50.2823
1306734325411,50.5044
1306734385411,50.2739
1306734445411,50.3996
1306734505411,50.4947
1306734565411,50.4508
1306734625411,50.4358
1306734685411,50.2275
1306734745411,50.2546
1306734805411,50.3205
1306734865411,50.1838
1306734925411,50.6442
1306734985411,50.3774
1306735045411,50.3117
1306735105411,50.2458
1306735165411,50.2610
1306735225421,50.3007
1306735285421,50.3705
1306735345421,50.4040
1306735405421,50.6566
1306735465421,50.5642
1306735525421,50.4668
1306735585421,50.5769
1306735645421,50.6770
1306735705421,50.3876
1306735765421,50.4954
1306735825421,50.3173
1306735885421,50.4335
1306735945421,50.3656
1306736005421,50.3555
1306736065421,50.3497
1306736125421,50.4105
1306736185421,50.3481
1306736245421,50.3832
1306736305421,50.3989
1306736365421,50.3472
1306736425421,50.4405
1306736485421,50.4027
1306736545421,50.2938
1306736605421,50.2433
1306736665421,50.2202
1306736725421,50.3713
1306736785421,50.3296
1306736845421,50.2582
1306736905421,50.3107
1306736965421,50.2807
1306737025421,50.3799
1306737085421,50.2662
1306737145421,50.2105
1306737205421,50.2829
1306737265421,50.3369
1306737325421,50.0927
1306737385421,50.2837
1306737445421,50.2273
1306737505421,50.2416
1306737565421,50.4772
1306737625421,50.3923
1306737685421,50.2455
1306737745421,50.1293
1306737805421,50.2839
1306737865421,50.2091
1306737925421,50.2688
1306737985421,50.2081
1306738045421,50.1865
1306738105421,50.2700
1306738165421,50.3124
1306738225421,50.4856
1306738285421,50.2781
1306738345421,50.2268
1306738405421,50.3539
1306738465421,50.2849
1306738525421,50.3527
1306738585421,50.2899
1306738645421,50.4150
1306738705421,50.1786
1306738765421,50.3832
1306738825430,50.5298
1306738885430,50.5322
1306738945430,50.3806
1306739005430,50.3537
1306739065430,50.3998
1306739125430,50.3401
1306739185430,50.3884
1306739245430,50.5596
1306739305430,50.3819
1306739365430,50.2370
1306739425430,50.4585
1306739485430,50.4132
1306739545430,50.5346
1306739605430,50.3757
1306739665430,50.2976
1306739725430,50.4881
1306739785430,50.5318
1306739845430,50.2453
1306739905430,50.4986
1306739965430,50.3655
1306740025430,50.3056
1306740085430,50.3943
1306740145430,50.3860
1306740205430,50.4639
1306740265430,50.4419
1306740325430,50.2446
1306740385430,50.4289
1306740445430,50.2552
1306740505430,50.3955
1306740565430,50.4786
1306740625430,50.3010
1306740685430,50.3348
1306740745430,50.4597
1306740805430,50.3946
1306740865430,50.4198
1306740925430,50.3935
1306740985430,50.3648
1306741045430,50.3670
1306741105430,50.4191
1306741165430,50.3697
1306741225430,50.3621
1306741285430,50.5106
1306741345430,50.4204
1306741405430,50.6474
1306741465430,50.5945
1306741525430,50.5299
1306741585430,50.5664
1306741645430,50.5505
1306741705430,50.6670
1306741765430,50.4692
1306741825430,50.6638
1306741885430,50.5555
1306741945430,50.5221
1306742005430,50.5402
1306742065430,50.6158
1306742125430,50.6415
1306742185430,50.5607
1306742245430,50.5602
1306742305430,50.5541
1306742365430,50.6586
1306742425440,50.5248
1306742485440,50.5137
1306742545440,50.4906
1306742605440,50.5588
1306742665440,50.5543
1306742725440,50.6645
1306742785440,50.4545
1306742845440,50.4792
1306742905440,50.4432
1306742965440,50.4988
1306743025440,50.5928
1306743085440,50.6276
1306743145440,50.4785
1306743205440,50.4981
1306743265440,50.5108
1306743325440,50.3696
1306743385440,50.6146
1306743445440,50.4038
1306743505440,50.3660
1306743565440,50.4483
1306743625440,50.3034
1306743685440,50.3686
1306743745440,50.3440
1306743805440,50.3704
1306743865440,50.5320
1306743925440,50.4690
1306743985440,50.5666
1306744045440,50.4396
1306744105440,50.3872
1306744165440,50.4311
1306744225440,50.4536
1306744285440,50.3711
1306744345440,50.4431
1306744405440,50.4158
1306744465440,50.4295
1306744525440,50.5577
1306744585440,50.5329
1306744645440,50.5709
1306744705440,50.4110
1306744765440,50.5223
1306744825440,50.4222
1306744885440,50.5215
1306744945440,50.5322
1306745005440,50.5927
1306745065440,50.6350
1306745125440,50.5267
1306745185440,50.6329
1306745245440,50.5260
1306745305440,50.6127
1306745365440,50.5371
1306745425440,50.4254
1306745485440,50.6128
1306745545440,50.4007
1306745605440,50.4674
1306745665440,50.5014
1306745725440,50.6129
1306745785440,50.4896
1306745845440,50.4018
1306745905440,50.4579
1306745965440,50.2561
1306746025449,50.4630
1306746085449,50.3270
1306746145449,50.2614
1306746205449,50.4017
1306746265449,50.3684
1306746325449,50.4751
1306746385449,50.5101
1306746445449,50.4583
1306746505449,50.3054
1306746565449,50.5546
1306746625449,50.4962
1306746685449,50.5572
1306746745449,50.4420
1306746805449,50.3955
1306746865449,50.4025
1306746925449,50.3363
1306746985449,50.3687
1306747045449,50.3400
1306747105449,50.4231
1306747165449,50.3050
1306747225449,50.4487
1306747285449,50.4028
1306747345449,50.4629
1306747405449,50.3412
1306747465449,50.2833
1306747525449,50.2483
1306747585449,50.3384
1306747645449,50.2262
1306747705449,50.4023
1306747765449,50.3549
1306747825449,50.2815
1306747885449,50.2179
1306747945449,50.2479
1306748005449,50.2807
1306748065449,50.3309
1306748125449,50.1492
1306748185449,50.3221
1306748245449,50.3671
1306748305449,50.3163
1306748365449,50.1522
1306748425449,50.1793
1306748485449,50.2427
1306748545449,50.2534
1306748605449,50.2585
1306748665449,50.0637
1306748725449,50.2844
1306748785449,50.1641
1306748845449,50.2613
1306748905449,50.1049
1306748965449,50.0214
1306749025449,50.1857
1306749085449,50.1216
1306749145449,49.9610
1306749205449,50.0791
1306749265449,49.9496
1306749325449,50.1015
1306749385449,49.9924
1306749445449,50.1062
1306749505449,50.0459
1306749565449,49.9402
1306749625458,49.8835
1306749685458,49.9970
1306749745458,49.9197
1306749805458,50.0138
1306749865458,49.9375
1306749925458,49.9303
1306749985458,50.0762
1306750045458,49.9334
1306750105458,49.8946
1306750165458,50.0111
1306750225458,49.8531
1306750285458,50.0578
1306750345458,49.9755
1306750405458,49.9959
1306750465458,50.0634
1306750525458,49.8348
1306750585458,50.0400
1306750645458,49.8457
1306750705458,49.8486
1306750765458,49.8165
1306750825458,49.9961
1306750885458,49.9913
1306750945458,49.9862
1306751005458,49.8919
1306751065458,50.1000
1306751125458,49.9465
1306751185458,49.9161
1306751245458,50.0569
1306751305458,49.9862
1306751365458,49.9353
1306751425458,49.9654
1306751485458,50.0684
1306751545458,50.0257
1306751605458,50.0412
1306751665458,50.0917
1306751725458,49.8434
1306751785458,50.0138
1306751845458,49.9522
1306751905458,49.9605
1306751965458,49.9041
1306752025458,49.9347
1306752085458,49.8775
1306752145458,50.0879
1306752205458,50.0680
1306752265458,49.9911
1306752325458,49.9746
1306752385458,50.1373
1306752445458,49.9624
1306752505458,49.9445
1306752565458,50.0460
1306752625458,50.0182
1306752685458,50.1030
1306752745458,50.1126
1306752805458,50.0284
1306752865458,50.0484
1306752925458,50.1351
1306752985458,50.2115
1306753045458,50.2033
1306753105458,50.1329
1306753165458,50.1187
1306753225467,50.1430
1306753285467,50.0790
1306753345467,50.0826
1306753405467,50.2429
1306753465467,50.0717
1306753525467,50.1724
1306753585467,50.1901
1306753645467,50.3422
1306753705467,50.2643
1306753765467,50.2003
1306753825467,50.2368
1306753885467,50.4054
1306753945467,50.3833
1306754005467,50.4860
1306754065467,50.4401
1306754125467,50.3869
1306754185467,50.3646
1306754245467,50.5707
1306754305467,50.4369
1306754365467,50.4535
1306754425467,50.5909
1306754485467,50.5409
1306754545467,50.6883
1306754605467,50.6496
1306754665467,50.5454
1306754725467,50.6615
1306754785467,50.6290
1306754845467,50.6760
1306754905467,50.6359
1306754965467,50.5020
1306755025467,50.6436
1306755085467,50.7151
1306755145467,50.5067
1306755205467,50.5481
1306755265467,50.5440
1306755325467,50.5515
1306755385467,50.7053
1306755445467,50.5978
1306755505467,50.6221
1306755565467,50.5154
1306755625467,50.5293
1306755685467,50.4968
1306755745467,50.3384
1306755805467,50.4213
1306755865467,50.4703
1306755925467,50.3807
1306755985467,50.4330
1306756045467,50.3625
1306756105467,50.2815
1306756165467,50.3902
1306756225467,50.5409
1306756285467,50.4892
1306756345467,50.3908
1306756405467,50.3488
1306756465467,50.4515
1306756525467,50.5128
1306756585467,50.4141
1306756645467,50.4075
1306756705467,50.3234
1306756765467,50.4479
1306756825477,50.3710
1306756885477,50.0532
1306756945477,50.2705
1306757005477,50.2095
1306757065477,50.2095
1306757125477,50.2283
1306757185477,50.1778
1306757245477,50.2562
1306757305477,50.2176
1306757365477,50.1877
1306757425477,50.1929
1306757485477,50.2438
1306757545477,50.1177
1306757605477,50.1569
1306757665477,50.2120
1306757725477,50.3400
1306757785477,50.3337
1306757845477,50.1362
1306757905477,50.2158
1306757965477,50.2209
1306758025477,50.2035
1306758085477,50.0551
1306758145477,50.1233
1306758205477,50.0636
1306758265477,50.2905
1306758325477,50.1741
1306758385477,50.1117
1306758445477,50.2104
1306758505477,50.1410
1306758565477,50.1865
1306758625477,50.3359
1306758685477,50.2270
1306758745477,50.3389
1306758805477,50.3093
1306758865477,50.3275
1306758925477,50.5028
1306758985477,50.3787
1306759045477,50.3111
1306759105477,50.2815
1306759165477,50.2848
1306759225477,50.3085
1306759285477,50.2331
1306759345477,50.3185
1306759405477,50.2869
1306759465477,50.2774
1306759525477,50.2689
1306759585477,50.2305
1306759645477,50.2638
1306759705477,50.2210
1306759765477,50.2425
1306759825477,50.2364
1306759885477,50.1264
1306759945477,50.1540
1306760005477,50.3739
1306760065477,50.2916
1306760125477,50.3553
1306760185477,50.2397
1306760245477,50.3034
1306760305477,50.1793
1306760365477,50.3020
1306760425486,50.3990
1306760485486,50.2954
1306760545486,50.3700
1306760605486,50.3433
1306760665486,50.3011
1306760725486,50.3568
1306760785486,50.4943
1306760845486,50.2545
1306760905486,50.4085
1306760965486,50.4109
1306761025486,50.2954
1306761085486,50.3172
1306761145486,50.2582
1306761205486,50.3221
1306761265486,50.3404
1306761325486,50.4916
1306761385486,50.3316
1306761445486,50.3392
1306761505486,50.3400
1306761565486,50.3186
1306761625486,50.3793
1306761685486,50.2198
1306761745486,50.4101
1306761805486,50.2504
1306761865486,50.4521
1306761925486,50.2312
1306761985486,50.2672
1306762045486,50.4977
1306762105486,50.2227
1306762165486,50.5288
1306762225486,50.2187
1306762285486,50.3587
1306762345486,50.3087
1306762405486,50.4290
1306762465486,50.4081
1306762525486,50.4660
1306762585486,50.5491
1306762645486,50.4283
1306762705486,50.3553
1306762765486,50.4434
1306762825486,50.4963
1306762885486,50.4659
1306762945486,50.4053
1306763005486,50.4269
1306763065486,50.2144
1306763125486,50.3186
1306763185486,50.3286
1306763245486,50.2532
1306763305486,50.4078
1306763365486,50.2116
1306763425486,50.2484
1306763485486,50.2524
1306763545486,50.2665
1306763605486,50.3705
1306763665486,50.4202
1306763725486,50.3006
1306763785486,50.3558
1306763845486,50.3733
1306763905486,50.4212
1306763965486,50.4051
1306764025495,50.3612
1306764085495,50.4275
1306764145495,50.4637
1306764205495,50.4501
1306764265495,50.3698
1306764325495,50.4486
1306764385495,50.4138
1306764445495,50.4801
1306764505495,50.5489
1306764565495,50.4283
1306764625495,50.4202
1306764685495,50.4844
1306764745495,50.4374
1306764805495,50.5144
1306764865495,50.4346
1306764925495,50.6152
1306764985495,50.5687
1306765045495,50.6874
1306765105495,50.5241
1306765165495,50.4358
1306765225495,50.6349
1306765285495,50.5664
1306765345495,50.7451
1306765405495,50.6457
1306765465495,50.6649
1306765525495,50.5452
1306765585495,50.7008
1306765645495,50.6057
1306765705495,50.6064
1306765765495,50.6291
1306765825495,50.7913
1306765885495,50.6633
1306765945495,50.7132
1306766005495,50.7723
1306766065495,50.6592
1306766125495,50.7282
1306766185495,50.7547
1306766245495,50.8213
1306766305495,50.7238
1306766365495,50.5983
1306766425495,50.9336
1306766485495,50.8725
1306766545495,50.6928
1306766605495,50.7439
1306766665495,50.6478
1306766725495,50.7541
1306766785495,50.7935
1306766845495,50.8168
1306766905495,50.7602
1306766965495,50.6947
1306767025495,50.6925
1306767085495,50.6782
1306767145495,50.7310
1306767205495,50.5700
1306767265495,50.9549
1306767325495,50.7531
1306767385495,50.8222
1306767445495,50.9556
1306767505495,50.9617
1306767565495,50.8840
1306767625504,50.8373
1306767685504,50.9217
1306767745504,50.7736
1306767805504,50.9060
1306767865504,50.8915
1306767925504,51.0436
1306767985504,50.8759
1306768045504,50.9880
1306768105504,50.6825
1306768165504,50.8862
1306768225504,50.9057
1306768285504,50.8746
1306768345504,51.0394
1306768405504,50.6635
1306768465504,50.7942
1306768525504,50.7343
1306768585504,50.8523
1306768645504,50.7621
1306768705504,50.8601
1306768765504,50.7411
1306768825504,50.7086
1306768885504,50.8365
1306768945504,50.7622
1306769005504,50.8624
1306769065504,50.6148
1306769125504,50.5606
1306769185504,50.6935
1306769245504,50.7192
1306769305504,50.7925
1306769365504,50.8275
1306769425504,50.7260
1306769485504,50.6348
1306769545504,50.7004
1306769605504,50.9149
1306769665504,50.7402
1306769725504,50.6824
1306769785504,50.8109
1306769845504,50.7502
1306769905504,50.8644
1306769965504,50.7889
1306770025504,50.8854
1306770085504,50.8117
1306770145504,50.7321
1306770205504,50.8380
1306770265504,50.7317
1306770325504,50.8172
1306770385504,50.8451
1306770445504,50.8920
1306770505504,50.6713
1306770565504,50.7174
1306770625504,50.7243
1306770685504,50.7551
1306770745504,50.6394
1306770805504,50.7630
1306770865504,50.7429
1306770925504,50.8130
1306770985504,50.7671
1306771045504,50.7872
1306771105504,50.9267
1306771165504,50.6760
1306771225514,50.8961
1306771285514,50.7818
1306771345514,50.9842
1306771405514,50.8386
1306771465514,50.8227
1306771525514,50.8820
1306771585514,50.7690
1306771645514,50.8605
1306771705514,50.9523
1306771765514,50.9133
1306771825514,51.0999
1306771885514,50.8488
1306771945514,50.9520
1306772005514,51.0768
1306772065514,50.9078
1306772125514,50.9479
1306772185514,50.9980
1306772245514,50.9789
1306772305514,50.9055
1306772365514,51.0615
1306772425514,50.7096
1306772485514,50.8902
1306772545514,50.9189
1306772605514,50.9936
1306772665514,51.1283
1306772725514,50.9033
1306772785514,50.8262
1306772845514,51.0196
1306772905514,50.9828
1306772965514,50.9325
1306773025514,50.9873
1306773085514,50.9116
1306773145514,51.0196
1306773205514,50.9566
1306773265514,50.8189
1306773325514,50.8761
1306773385514,50.9573
1306773445514,50.9856
1306773505514,51.0428
1306773565514,50.9721
1306773625514,51.1884
1306773685514,51.0375
1306773745514,50.9591
1306773805514,51.0316
1306773865514,50.7929
1306773925514,50.9654
1306773985514,50.9619
1306774045514,51.0096
1306774105514,50.9285
1306774165514,50.8343
1306774225514,51.0563
1306774285514,50.9588
1306774345514,51.1577
1306774405514,50.9155
1306774465514,50.8381
1306774525514,50.9598
1306774585514,50.8031
1306774645514,50.8022
1306774705514,50.8614
1306774765514,50.9079
1306774825523,50.7064
1306774885523,50.8269
1306774945523,50.8744
1306775005523,50.8791
1306775065524,50.9711
1306775125524,50.9676
1306775185524,50.8834
1306775245524,50.9205
1306775305524,50.8402
1306775365524,50.6763
1306775425523,50.8113
1306775485523,50.8679
1306775545523,50.8237
1306775605523,50.8537
1306775665523,50.7637
1306775725523,50.8666
1306775785523,50.8081
1306775845523,50.8651
1306775905523,50.8602
1306775965523,50.9399
1306776025523,50.7254
1306776085524,50.7782
1306776145523,50.6840
1306776205523,50.7246
1306776265523,50.7001
1306776325523,50.7648
1306776385523,50.4386
1306776445524,50.8048
1306776505524,50.6475
1306776565524,50.7888
1306776625524,50.8327
1306776685524,50.6906
1306776745524,50.8566
1306776805523,50.6869
1306776865523,50.6546
1306776925523,50.7003
1306776985523,50.7317
1306777045523,50.7258
1306777105523,50.6869
1306777165523,50.4115
1306777225523,50.5362
1306777285523,50.6824
1306777345523,50.6714
1306777405523,50.8175
1306777465523,50.6343
1306777525523,50.5819
1306777585523,50.5828
1306777645523,50.6635
1306777705523,50.6251
1306777765524,50.5826
1306777825524,50.5945
1306777885524,50.5770
1306777945524,50.6186
1306778005524,50.6124
1306778065524,50.3708
1306778125523,50.5197
1306778185523,50.4072
1306778245523,50.5401
1306778305523,50.5466
1306778365523,50.5759
1306778425533,50.5303
1306778485533,50.6164
1306778545533,50.5902
1306778605533,50.5888
1306778665533,50.5948
1306778725533,50.4247
1306778785533,50.4830
1306778845533,50.4401
1306778905533,50.4896
1306778965533,50.5135
1306779025533,50.6497
1306779085533,50.7513
1306779145533,50.3557
1306779205533,50.4609
1306779265533,50.5162
1306779325533,50.4489
1306779385533,50.5505
1306779445533,50.6215